Theta_e
329 326 335 337 339 341 340 340 340 339 338 339 341 341 341 342 342 340 340 339 335 336 339 341 340 340 339 338 337 336 337 336 331 329 327 329 329 329 328 327 327 328 326
342 337 334 336 337 339 339 339 338 338 338 338 339 340 341 341 340 340 339 338 337 337 335 335 339 338 340 339 340 337 336 337 334 331 328 328 329 329 329 329 329 328 326
343 342 340 339 338 338 338 338 339 338 338 337 337 337 337 338 339 340 340 338 337 332 332 337 334 334 335 337 337 342 337 337 337 332 329 328 329 330 329 330 329 327 326
344 342 342 339 339 340 340 339 338 338 338 338 337 337 337 338 338 339 340 339 335 335 333 332 337 333 332 332 330 332 341 337 337 334 330 329 329 329 329 329 329 328 327
345 339 341 341 342 341 342 341 339 339 341 340 340 340 340 342 341 340 339 335 334 331 330 335 334 330 330 333 332 332 336 340 337 335 330 329 330 329 328 328 329 330 326
346 345 342 342 343 344 343 343 340 339 341 341 342 340 340 339 337 335 335 333 331 330 330 330 330 330 330 330 333 335 331 340 337 335 331 328 330 329 328 328 329 329 326
346 345 343 338 344 345 345 343 341 340 341 341 339 337 336 335 333 332 331 330 330 330 331 332 333 331 330 331 330 330 330 339 338 336 332 329 329 330 328 328 329 330 329
346 345 343 344 344 342 343 342 339 339 338 336 335 334 334 334 331 333 333 332 330 332 331 332 330 330 331 334 330 335 337 337 338 338 334 329 330 328 328 328 331 330 329
345 343 343 340 341 338 337 336 334 332 330 329 329 331 332 332 331 330 328 329 331 332 333 332 332 331 333 334 333 334 339 337 335 337 336 328 328 329 329 328 330 330 328
341 340 338 337 332 325 321 321 319 317 317 321 325 327 329 330 330 330 330 329 330 331 333 334 331 331 332 331 332 335 335 335 334 333 333 327 329 330 330 328 329 327 323
332 325 320 314 313 312 311 311 311 311 312 316 322 324 325 327 328 326 328 328 328 329 331 333 332 332 330 330 333 333 333 335 334 332 331 328 330 330 329 327 325 319 317
314 312 312 311 311 310 309 308 309 309 311 314 317 321 322 322 323 323 324 326 326 327 329 333 333 331 331 329 329 330 332 333 335 334 331 328 329 330 328 318 315 317 317
313 312 311 310 309 308 307 306 305 306 307 309 312 315 317 320 321 321 322 324 325 325 326 329 331 331 331 328 329 329 330 334 334 334 331 328 329 330 327 315 316 317 316
312 312 312 312 311 309 307 305 304 304 304 305 308 312 317 318 317 318 320 321 323 321 324 331 331 330 330 330 328 329 329 332 334 332 331 329 329 331 326 315 316 317 316
312 312 312 312 310 308 304 303 303 303 303 303 305 308 311 314 317 315 316 318 319 322 321 326 327 330 330 329 327 327 328 329 333 334 332 329 329 330 326 316 316 317 316
312 312 312 312 310 306 303 302 302 303 303 303 303 304 306 307 310 315 316 314 316 317 318 320 321 326 331 328 325 325 327 328 331 332 331 330 330 329 327 320 316 316 317
312 312 312 312 311 306 302 302 301 301 302 303 304 305 305 305 304 304 311 315 314 314 315 317 318 318 327 331 328 325 325 326 327 330 331 331 330 329 328 325 315 316 317
313 313 312 312 310 306 302 301 301 300 302 305 306 306 305 304 303 303 302 303 311 315 314 313 312 313 319 328 328 326 326 325 326 327 331 330 330 329 328 328 315 316 317
315 313 313 312 310 306 302 302 300 300 302 304 305 305 303 300 300 300 301 301 301 307 312 313 313 310 309 322 328 328 326 328 328 325 328 331 330 328 328 329 318 316 317
317 314 313 312 310 307 303 302 301 299 300 301 303 303 301 300 301 303 303 303 301 300 305 308 310 313 312 310 320 324 329 329 329 326 329 330 329 328 327 326 320 316 317
315 313 312 311 309 306 303 302 300 299 298 300 301 301 301 301 303 305 306 305 305 304 305 307 309 312 313 313 310 318 324 327 329 328 326 324 327 327 326 326 326 316 317
315 313 311 310 308 305 303 302 300 298 298 299 299 299 300 302 303 305 306 306 307 307 307 308 309 310 312 313 313 313 317 324 325 328 327 327 327 326 325 326 326 319 317
311 311 310 308 306 303 301 300 300 299 298 298 299 299 300 301 302 303 303 305 306 307 307 307 308 310 312 313 314 315 316 320 322 319 325 327 327 327 326 324 324 318 317
310 309 308 305 301 299 299 299 298 298 299 299 299 300 299 299 300 300 301 302 303 304 305 306 306 307 307 309 311 314 315 316 318 320 319 323 326 326 326 325 320 316 317
307 303 299 298 297 297 298 298 298 299 299 299 299 299 299 298 298 299 300 300 301 302 303 303 303 305 306 306 308 310 314 315 317 317 317 320 325 326 327 325 321 319 320
299 298 297 297 297 297 298 298 298 298 298 298 298 298 298 298 297 297 298 299 299 300 301 301 302 302 303 304 306 307 309 311 312 314 316 317 319 326 325 325 324 322 322
Wind_Speed
7 11 9 9 9 9 9 9 11 12 13 14 13 14 16 17 17 19 19 19 21 21 20 18 19 19 21 22 20 18 18 16 16 14 14 12 11 9 7 4 3 2 5
5 7 10 11 12 13 12 14 15 15 16 16 16 17 18 18 21 22 22 19 19 27 23 22 22 23 21 20 21 21 22 21 19 17 16 15 13 11 8 6 3 2 6
8 8 11 13 14 16 17 17 15 15 15 15 15 15 16 17 20 23 21 21 24 23 23 19 19 17 22 30 27 24 27 25 23 20 18 16 14 12 10 8 5 6 7
14 13 13 16 17 18 19 22 22 22 20 19 21 23 23 22 23 25 25 25 22 22 23 21 23 21 27 23 32 27 34 29 26 23 19 16 15 13 11 10 10 11 10
15 16 19 19 20 21 21 23 24 20 19 21 22 24 25 25 25 26 26 23 18 17 20 22 23 27 31 29 27 33 33 27 26 24 19 16 15 14 11 12 13 13 10
17 21 20 21 23 19 17 18 21 24 23 24 24 24 26 25 21 21 21 19 15 19 25 24 27 27 20 28 28 29 36 33 25 22 20 16 16 14 12 12 10 10 9
19 22 18 19 18 20 23 23 17 18 17 21 23 22 22 18 16 16 15 20 23 23 21 24 31 23 22 16 14 13 24 27 26 23 21 16 15 14 11 12 12 12 11
17 16 15 16 15 11 17 22 17 20 17 17 17 20 13 22 4 19 21 23 16 22 21 27 20 17 20 12 20 24 21 24 24 24 21 16 15 13 12 12 13 14 16
11 8 11 10 16 17 15 14 16 16 15 14 14 8 7 7 25 19 19 21 20 18 22 19 9 10 13 14 12 24 24 23 22 22 20 16 14 13 12 12 13 14 15
9 11 11 12 9 7 9 11 12 12 12 11 9 8 8 12 13 16 22 20 21 20 20 19 14 14 13 22 15 13 15 17 19 20 19 16 14 13 13 12 15 14 13
2 3 3 5 5 7 9 10 9 10 9 8 8 8 8 9 11 18 19 29 24 21 20 16 15 15 17 13 6 13 15 17 19 20 19 17 14 13 13 13 15 11 11
10 9 8 7 8 9 10 11 10 10 9 8 7 7 10 11 12 15 20 25 28 25 21 18 16 16 17 12 15 12 16 18 17 18 19 16 15 12 13 11 10 9 8
10 9 8 8 9 11 13 13 12 12 12 12 11 9 8 9 11 12 15 20 24 27 25 18 12 11 12 11 12 14 15 13 16 17 20 20 16 13 13 11 8 7 7
9 8 7 9 11 14 15 14 13 14 14 13 12 11 9 10 12 12 13 18 22 25 23 18 14 14 17 15 14 19 15 12 17 20 19 19 17 15 13 10 8 6 6
5 4 4 7 11 15 16 15 14 13 14 14 14 14 14 13 12 11 11 12 14 17 23 17 21 16 10 13 15 23 21 16 15 18 16 18 19 15 12 11 7 6 7
3 1 5 8 12 15 14 15 15 15 14 14 15 16 16 16 15 15 15 13 11 13 14 19 18 22 13 10 2 6 11 16 12 10 14 18 19 15 13 11 7 8 9
4 5 6 9 14 15 15 15 16 16 16 16 16 16 17 18 18 17 18 17 15 15 18 22 16 17 18 8 12 7 9 15 18 14 18 22 16 15 13 11 10 10 8
6 8 9 11 15 18 17 17 17 17 16 17 18 20 21 23 23 22 20 20 21 16 18 22 19 17 15 15 11 13 14 15 16 16 16 18 17 15 14 13 12 11 9
8 10 11 13 15 19 18 18 18 17 17 20 23 24 26 27 24 20 18 18 19 21 20 21 22 16 14 13 11 12 17 20 17 22 17 14 14 16 15 15 13 12 9
9 11 14 15 17 20 20 19 19 19 18 19 23 25 24 22 17 15 14 14 15 18 20 21 21 20 15 13 12 10 13 12 19 20 14 14 15 15 14 14 11 11 10
10 13 16 18 20 22 23 23 23 20 19 19 21 25 23 16 12 11 13 13 13 14 16 18 18 19 20 17 15 13 10 17 15 21 20 19 18 17 17 18 13 12 11
15 16 18 22 23 25 26 25 23 22 21 22 22 20 16 13 10 10 9 10 14 15 16 14 17 17 17 16 15 14 12 13 12 14 14 14 15 15 14 13 12 14 13
17 19 21 24 27 28 29 26 23 24 22 20 19 14 13 12 8 10 11 10 9 10 12 13 15 15 13 13 17 16 10 6 12 16 9 7 9 13 13 12 13 15 13
21 23 25 27 29 28 27 25 25 20 14 11 12 13 12 14 11 12 11 10 9 12 13 13 16 19 20 19 20 20 18 13 10 13 12 6 8 10 13 13 11 15 15
23 25 26 26 25 23 20 18 18 15 14 13 12 12 14 13 16 15 14 14 12 14 16 18 19 23 23 23 23 23 20 20 19 11 14 11 10 11 10 14 12 15 15
21 20 21 20 17 15 12 15 13 14 14 16 15 13 16 17 18 16 16 17 19 19 21 24 25 26 27 28 27 26 24 23 21 19 11 13 14 10 8 16 17 17 17
Wind_Direction
276 260 265 275 277 274 284 293 291 297 298 299 289 288 288 288 298 298 297 287 303 295 276 278 267 271 276 283 278 272 272 271 268 266 251 243 242 249 251 254 268 325 351
299 288 273 283 292 290 286 287 288 289 288 292 292 291 292 296 294 300 295 289 309 296 288 283 268 267 266 269 279 274 267 267 265 263 255 240 236 241 245 250 263 323 332
261 268 273 273 288 290 284 283 284 287 290 292 295 300 300 299 300 301 303 295 311 310 304 285 273 281 278 274 269 264 268 260 262 260 257 239 238 236 239 244 248 273 282
264 256 262 268 279 282 286 286 283 283 289 292 294 298 302 301 297 298 298 306 312 313 302 282 272 283 270 292 259 261 256 258 255 255 255 240 236 236 238 248 251 259 264
279 266 253 259 267 275 277 278 279 284 289 292 294 296 297 297 294 297 305 313 312 306 301 288 270 287 285 261 261 251 255 245 254 249 247 237 235 239 248 258 258 257 259
264 272 257 259 272 276 273 280 286 284 287 291 293 292 290 300 310 315 313 313 309 303 296 288 281 280 293 285 269 245 254 237 247 239 239 237 236 242 256 271 260 260 270
265 264 258 267 267 274 278 292 269 278 290 296 307 305 310 314 318 315 319 315 308 307 307 300 289 268 296 266 252 202 227 233 241 236 231 235 238 243 258 267 261 257 274
262 260 259 267 273 289 291 296 313 313 315 323 329 331 327 320 293 308 313 318 319 323 311 309 307 282 288 264 250 247 256 240 237 234 230 235 236 242 255 264 262 263 266
242 245 262 280 285 302 302 311 320 322 330 337 340 349 329 308 320 324 327 333 330 327 320 324 319 298 306 293 284 264 238 232 234 232 230 229 233 241 252 258 260 263 264
260 267 276 290 304 335 349 351 349 348 345 348 4 2 348 326 322 324 328 337 336 337 327 307 311 282 304 303 297 253 244 240 231 234 227 222 231 243 251 256 256 257 272
230 112 82 72 50 30 19 12 6 4 357 358 358 354 345 344 350 335 329 335 326 336 333 310 300 312 278 279 254 271 263 250 227 229 224 221 228 241 251 251 256 262 264
113 102 87 67 48 31 19 8 1 346 344 343 347 349 356 6 342 340 333 332 329 331 331 338 294 280 273 284 254 262 273 270 236 227 221 220 229 243 255 256 252 252 268
118 102 84 61 34 19 7 0 352 342 338 332 333 336 330 333 343 334 334 328 328 332 339 336 310 288 276 266 239 269 276 277 247 230 218 221 226 240 253 254 245 253 278
120 92 52 28 10 359 352 348 343 339 338 331 327 321 323 311 314 332 344 341 333 326 332 343 343 303 298 276 263 277 258 280 252 227 217 224 230 238 246 249 242 265 289
117 83 20 3 358 349 345 342 338 335 331 328 322 317 313 303 301 310 314 331 342 329 325 329 337 322 297 279 276 267 255 275 252 219 207 219 233 232 237 243 246 272 286
188 320 339 347 350 349 344 337 332 334 331 325 319 313 307 305 300 294 295 298 311 321 312 317 327 327 298 236 152 324 262 264 276 258 212 224 233 228 234 241 245 263 275
251 296 315 334 340 344 338 331 328 327 324 320 315 311 312 311 305 300 288 287 287 295 305 300 314 328 316 247 224 206 218 238 295 283 245 241 222 225 233 243 248 252 271
267 291 311 325 334 336 335 329 326 324 322 318 314 312 311 308 305 302 292 281 279 285 295 299 307 319 329 311 244 241 243 245 266 266 258 245 226 225 237 243 244 250 268
284 294 307 319 330 330 330 328 326 320 315 311 310 312 315 314 307 302 294 286 272 274 279 289 293 310 322 325 295 260 263 251 238 238 266 234 242 246 249 244 241 248 265
289 295 306 314 319 322 323 324 322 316 308 305 306 311 319 321 311 307 304 299 287 274 275 283 283 285 302 315 310 304 283 274 224 228 230 232 241 251 258 260 235 242 258
292 302 306 311 315 317 318 321 320 316 309 305 306 310 315 313 304 306 307 302 295 290 289 288 293 286 285 296 310 305 319 274 243 226 224 232 252 247 251 257 240 237 251
286 296 302 308 311 312 313 315 316 312 306 305 308 312 309 307 299 286 284 294 299 298 295 302 301 297 289 287 297 313 326 284 288 215 212 225 246 251 252 247 236 226 237
291 293 297 302 304 305 308 310 309 307 305 305 307 307 306 310 302 301 290 273 286 294 286 285 287 290 295 292 292 297 311 303 279 328 221 231 230 243 242 236 229 215 225
287 293 296 299 302 304 304 308 307 308 307 311 312 306 308 306 305 302 307 303 288 278 273 273 268 271 282 284 287 289 299 306 289 300 328 292 250 235 226 221 221 205 212
286 292 296 299 301 301 302 311 317 317 316 311 301 296 296 301 299 292 282 286 284 275 272 276 275 267 266 271 277 277 273 287 292 286 304 303 271 232 224 215 200 198 207
293 299 306 308 307 302 304 311 317 306 302 298 295 292 295 298 300 302 287 277 280 278 272 264 263 268 270 269 261 265 273 273 278 282 278 302 313 218 251 213 202 206 215